Location: Unspecified
(48.8656°N, 0.0000°E)
Time: 02:40:44
(UTC+00:00)

Courier 1B Rocket - All Passes

Search period start: 18 June 2019 00:00
Search period end: 28 June 2019 00:00
Orbit: 920 x 1202 km, 28.2° (Epoch: 16 June)

Date Brightness Start Highest point End Pass type
(mag) Time Alt. Az. Time Alt. Az. Time Alt. Az.
18 Jun - 07:55:23 10° S 07:56:12 10° S 07:57:01 10° S daylight
19 Jun - 06:54:54 10° S 06:55:39 10° S 06:56:25 10° S daylight
21 Jun - 06:45:08 10° SSW 06:46:30 11° S 06:47:49 10° S daylight
22 Jun - 05:44:19 10° SSW 05:45:55 11° S 05:47:30 10° SSE daylight
23 Jun - 04:44:04 10° S 04:45:19 11° S 04:46:34 10° SSE daylight
23 Jun - 06:36:19 10° SSW 06:37:18 10° S 06:38:17 10° S daylight
24 Jun - 05:34:41 10° SSW 05:36:44 11° S 05:38:44 10° SSE daylight
25 Jun - 04:33:45 10° SSW 04:36:08 12° S 04:38:27 10° SSE daylight
26 Jun - 03:33:13 10° SSW 03:35:29 12° S 03:37:43 10° SSE daylight
26 Jun - 05:25:39 10° SSW 05:27:31 11° S 05:29:22 10° S daylight
27 Jun - 02:33:20 10° S 02:34:49 11° SSE 02:36:18 10° SSE visible
27 Jun - 04:24:11 10° SSW 04:26:54 12° S 04:29:34 10° SSE daylight
